EN

Hourly Weather Spataevo

Today, 8 March, Monday

Time Temperature Precipitation Wind Pressure Humidity
00:00 +6°C° 0 mm 2 mps 741 mmHg 82%
01:00 +6°C° 0 mm 2 mps 741 mmHg 82%
02:00 +5°C° 0 mm 3 mps 741 mmHg 81%
03:00 +5°C° 0 mm 3 mps 741 mmHg 82%
04:00 +5°C° 0 mm 3 mps 741 mmHg 83%
05:00 +4°C° 0 mm 3 mps 741 mmHg 84%
06:00 +4°C° 0 mm 3 mps 742 mmHg 83%
07:00 +5°C° 0 mm 3 mps 742 mmHg 83%
08:00 +5°C° 0 mm 4 mps 742 mmHg 83%
09:00 +6°C° 0 mm 5 mps 743 mmHg 71%
10:00 +8°C° 0 mm 6 mps 743 mmHg 60%
11:00 +10°C° 0 mm 6 mps 744 mmHg 49%
12:00 +11°C° 0 mm 6 mps 744 mmHg 47%
13:00 +13°C° 0 mm 6 mps 744 mmHg 45%
14:00 +13°C° 0 mm 6 mps 744 mmHg 42%
15:00 +13°C° 0 mm 5 mps 744 mmHg 42%
16:00 +13°C° 0 mm 4 mps 744 mmHg 42%
17:00 +13°C° 0 mm 3 mps 744 mmHg 42%
18:00 +12°C° 0 mm 3 mps 744 mmHg 46%
19:00 +10°C° 0 mm 3 mps 744 mmHg 50%
20:00 +9°C° 0 mm 2 mps 745 mmHg 54%
21:00 +8°C° 0 mm 3 mps 745 mmHg 59%
22:00 +7°C° 0 mm 3 mps 745 mmHg 63%
23:00 +6°C° 0 mm 4 mps 745 mmHg 67%

Tomorrow, 9 March, Tuesday

Time Temperature Precipitation Wind Pressure Humidity
00:00 +5°C° 0 mm 4 mps 744 mmHg 69%
01:00 +5°C° 0 mm 3 mps 744 mmHg 71%
02:00 +5°C° 0 mm 3 mps 743 mmHg 73%
03:00 +5°C° 0 mm 3 mps 743 mmHg 73%
04:00 +4°C° 0 mm 3 mps 742 mmHg 73%
05:00 +4°C° 0 mm 3 mps 742 mmHg 73%
06:00 +5°C° 0 mm 3 mps 742 mmHg 71%
07:00 +5°C° 0 mm 3 mps 741 mmHg 69%
08:00 +7°C° 0 mm 3 mps 741 mmHg 66%
09:00 +9°C° 0 mm 3 mps 741 mmHg 57%
10:00 +12°C° 0 mm 3 mps 740 mmHg 48%
11:00 +14°C° 0 mm 3 mps 740 mmHg 39%
12:00 +16°C° 0 mm 3 mps 740 mmHg 37%
13:00 +17°C° 0 mm 3 mps 739 mmHg 35%
14:00 +18°C° 0 mm 3 mps 738 mmHg 33%
15:00 +18°C° 0 mm 3 mps 738 mmHg 35%
16:00 +18°C° 0 mm 3 mps 738 mmHg 36%
17:00 +18°C° 0 mm 3 mps 737 mmHg 38%
18:00 +16°C° 0 mm 3 mps 737 mmHg 41%
19:00 +14°C° 0 mm 3 mps 737 mmHg 44%
20:00 +12°C° 0 mm 4 mps 736 mmHg 48%
21:00 +12°C° 0 mm 3 mps 736 mmHg 47%
22:00 +11°C° 0 mm 3 mps 736 mmHg 46%
23:00 +12°C° 0 mm 2 mps 736 mmHg 46%

Day after tomorrow, 10 March, Wednesday

Time Temperature Precipitation Wind Pressure Humidity
00:00 +11°C° 0 mm 4 mps 735 mmHg 51%
01:00 +10°C° 0 mm 5 mps 735 mmHg 56%
02:00 +11°C° 0 mm 7 mps 735 mmHg 61%
03:00 +10°C° 0 mm 6 mps 735 mmHg 66%
04:00 +10°C° 0 mm 5 mps 735 mmHg 71%
05:00 +11°C° 0 mm 4 mps 735 mmHg 76%
06:00 +11°C° 0 mm 4 mps 736 mmHg 75%
07:00 +11°C° 0 mm 4 mps 736 mmHg 74%
08:00 +11°C° 0 mm 3 mps 736 mmHg 72%
09:00 +13°C° 0 mm 5 mps 736 mmHg 64%
10:00 +15°C° 0 mm 7 mps 736 mmHg 55%
11:00 +16°C° 0 mm 9 mps 737 mmHg 47%
12:00 +16°C° 0 mm 9 mps 737 mmHg 45%
13:00 +15°C° 0 mm 9 mps 737 mmHg 44%
14:00 +15°C° 0 mm 8 mps 738 mmHg 43%
15:00 +12°C° 0 mm 8 mps 738 mmHg 45%
16:00 +11°C° 0 mm 7 mps 739 mmHg 48%
17:00 +9°C° 0 mm 7 mps 739 mmHg 51%
18:00 +8°C° 0.1 mm 5 mps 740 mmHg 54%
19:00 +7°C° 0.1 mm 4 mps 740 mmHg 58%
20:00 +7°C° 0.1 mm 3 mps 741 mmHg 61%
21:00 +5°C° 0 mm 3 mps 742 mmHg 60%
22:00 +5°C° 0 mm 3 mps 742 mmHg 60%
23:00 +5°C° 0 mm 3 mps 743 mmHg 59%

11 March, Thursday

Time Temperature Precipitation Wind Pressure Humidity
00:00 +5°C° 0 mm 2 mps 743 mmHg 58%
01:00 +5°C° 0 mm 2 mps 743 mmHg 57%
02:00 +4°C° 0 mm 2 mps 743 mmHg 56%
03:00 +4°C° 0 mm 2 mps 743 mmHg 56%
04:00 +4°C° 0 mm 2 mps 744 mmHg 55%
05:00 +3°C° 0 mm 2 mps 744 mmHg 55%
06:00 +3°C° 0 mm 2 mps 744 mmHg 54%
07:00 +3°C° 0 mm 2 mps 745 mmHg 53%
08:00 +3°C° 0 mm 2 mps 746 mmHg 52%
09:00 +3°C° 0 mm 3 mps 745 mmHg 49%
10:00 +4°C° 0 mm 3 mps 745 mmHg 45%
11:00 +7°C° 0 mm 3 mps 745 mmHg 42%
12:00 +7°C° 0 mm 4 mps 745 mmHg 39%
13:00 +8°C° 0 mm 4 mps 744 mmHg 36%
14:00 +9°C° 0 mm 5 mps 744 mmHg 33%
15:00 +10°C° 0 mm 4 mps 744 mmHg 33%
16:00 +10°C° 0 mm 3 mps 743 mmHg 33%
17:00 +10°C° 0 mm 3 mps 743 mmHg 33%
18:00 +9°C° 0 mm 3 mps 743 mmHg 35%
19:00 +8°C° 0 mm 2 mps 743 mmHg 38%
20:00 +7°C° 0 mm 2 mps 743 mmHg 41%
21:00 +7°C° 0 mm 2 mps 742 mmHg 43%
22:00 +6°C° 0 mm 2 mps 742 mmHg 45%
23:00 +5°C° 0 mm 3 mps 741 mmHg 47%

12 March, Friday

Time Temperature Precipitation Wind Pressure Humidity
00:00 +5°C° 0 mm 3 mps 741 mmHg 51%
01:00 +4°C° 0 mm 3 mps 740 mmHg 55%
02:00 +4°C° 0 mm 3 mps 740 mmHg 58%
03:00 +4°C° 0 mm 3 mps 740 mmHg 58%
04:00 +4°C° 0 mm 3 mps 739 mmHg 58%
05:00 +4°C° 0 mm 3 mps 739 mmHg 58%
06:00 +5°C° 0 mm 3 mps 738 mmHg 55%
07:00 +5°C° 0 mm 4 mps 738 mmHg 53%
08:00 +5°C° 0 mm 4 mps 737 mmHg 51%
09:00 +7°C° 0 mm 4 mps 737 mmHg 46%
10:00 +9°C° 0 mm 5 mps 736 mmHg 40%
11:00 +12°C° 0 mm 5 mps 736 mmHg 34%
12:00 +13°C° 0 mm 6 mps 735 mmHg 33%
13:00 +14°C° 0 mm 7 mps 734 mmHg 32%
14:00 +15°C° 0 mm 7 mps 734 mmHg 31%
15:00 +15°C° 0 mm 7 mps 733 mmHg 32%
16:00 +14°C° 0 mm 7 mps 733 mmHg 34%
17:00 +14°C° 0 mm 7 mps 732 mmHg 35%
18:00 +12°C° 0 mm 7 mps 732 mmHg 39%
19:00 +11°C° 0 mm 7 mps 733 mmHg 42%
20:00 +10°C° 0 mm 7 mps 733 mmHg 45%
21:00 +10°C° 0 mm 6 mps 733 mmHg 49%
22:00 +9°C° 0 mm 6 mps 733 mmHg 52%
23:00 +9°C° 0 mm 5 mps 733 mmHg 55%

13 March, Saturday

Time Temperature Precipitation Wind Pressure Humidity
00:00 +9°C° 0.7 mm 5 mps 733 mmHg 63%
01:00 +8°C° 0.7 mm 4 mps 732 mmHg 71%
02:00 +8°C° 0.7 mm 4 mps 732 mmHg 79%
03:00 +8°C° 2.8 mm 4 mps 733 mmHg 84%
04:00 +8°C° 2.8 mm 4 mps 733 mmHg 89%
05:00 +8°C° 2.8 mm 4 mps 733 mmHg 93%
06:00 +8°C° 2.4 mm 4 mps 733 mmHg 92%
07:00 +7°C° 2.4 mm 4 mps 734 mmHg 91%
08:00 +6°C° 2.4 mm 4 mps 735 mmHg 89%
09:00 +6°C° 0.8 mm 4 mps 735 mmHg 88%
10:00 +5°C° 0.8 mm 4 mps 736 mmHg 87%
11:00 +5°C° 0.8 mm 4 mps 736 mmHg 86%
12:00 +5°C° 0.7 mm 3 mps 736 mmHg 87%
13:00 +7°C° 0.7 mm 3 mps 737 mmHg 88%
14:00 +7°C° 0.7 mm 3 mps 737 mmHg 89%
15:00 +7°C° 0.4 mm 2 mps 737 mmHg 89%
16:00 +7°C° 0.4 mm 2 mps 737 mmHg 89%
17:00 +7°C° 0.4 mm 2 mps 737 mmHg 89%
18:00 +7°C° 0.4 mm 3 mps 737 mmHg 87%
19:00 +5°C° 0.4 mm 4 mps 738 mmHg 85%
20:00 +3°C° 0.4 mm 6 mps 738 mmHg 83%
21:00 +2°C° 0.3 mm 6 mps 739 mmHg 86%
22:00 -1°C° 0.3 mm 6 mps 739 mmHg 89%
23:00 -2°C° 0.3 mm 6 mps 740 mmHg 92%
Show more

We Need Your Consent

Meteoprog and our Service Providers may store and access personal data such as cookies, device identifiers or other similar technologies on your device and process such data to personalise content and ads, as well as provide social media features and to analyse the traffic.

  • Store and/or access information on your device

    Cookies, device identifiers or other information can be stored or accessed on your device for the purposes indicated above.

  • Personalised ads and content, ad and content measurement, audience insights, and products development

    Ads and content can be personalised based on a profile. More data can be added to better personalise ads and content. Ad and content performance can be measured. Insights about the audience who saw the ads and content can be derived. Such data can be used to develop or improve user’s experience, systems and software.

By clicking ‘I Agree’ you will allow the use of indicated cookies, device identifiers, web beacons or other similar technologies. Your settings can be changed in the browser on your device.

For certain purposes, legitimate interests may be relied on, rather than consent. You can read more about this in our Privacy and Cookie Policy.